THOR ABLESTAR DEB, 5826

Orbit data source: Space-Track

THOR ABLESTAR DEB, 5826 is space debris in LEO originally from a launch on Thu, 29 Jun 1961 UTC launched from the Air Force Eastern Test Range (AFETR). Debris objects in space refer to the collection of defunct objects orbiting the Earth. Examples of debris include non-operational satellites, rocket bodies, and fragments generated from explosions, collisions, or faulty payload assembly.

Loading next visibility...
Identifier
5826, 1961-015KE
Orbit
LEO
Country
Flag of USUS
Related business
Manufacturer
Unknown
Mission
Spacecraft
Bus & Motor
Unknown
Mass
Unknown
Launch date (UTC)
1961-06-29 (64 years ago)
Launch vehicle
Unknown
Launch site
Air Force Eastern Test Range (AFETR)
Object type
Payload
Rocket body
Debris
Shape & HBR
Unknown shape, 0.1 m
Radar Cross Section
Small (<0.1 m²)

Expand to show TLE details & history
Last TLE update: 18 hours ago

TLE from 18 hours ago
0 THOR ABLESTAR DEB
1 05826U 61015KE  25302.99818339  .00000860  00000-0  65645-3 0  9999
2 05826  66.6792 164.2125 0068593  55.4140 305.3387 13.97241663238565
Epoch: 2025-10-29T23:57Z
TLE epoch observation values (Epoch: 2025-10-29T23:57:23.044Z)
Latitude
0.00001°
Longitude
126.3032°
Altitude
876.773 km
Speed
7.429 km/s
True Right ascension
10h 56m 51s
True Declination
0° 00' 00"
Sunlit
Object was in daylight at epoch
Visualization orbit readout
Latitude
Unknown
Longitude
Unknown
Altitude
Unknown
Speed
Unknown
Apparent Right ascension
Unknown
Apparent Declination
Unknown
Sunlit
N/A
Visualization observer readout
Local Sidereal Time
13:45:52
Azimuth
Unknown
Elevation
Unknown
Doppler factor
Unknown
Orbital elements
Apogee altitude
951.7 km
Perigee altitude
851.83 km
Semi-major axis
7,279.902 km
Eccentricity
0.00686
Inclination
66.6792°
RAAN
164.2125°
Arg. of periapsis
55.414°
True anomaly
304.69433°
Mean anomaly
305.3387°
Eccentric anomaly
305.01683°
Mean motion
3.49426 °/min
Orbital period
103.03 mins
BSTAR
0.00065645

Documentation

Showing up to 5 results
|